Miscellaneous Local Product
Issued by NWS North Platte, NE

Home | Current Version | Previous Version | Graphics & Text | Print | Product List | Glossary On
Versions: 1 2 3 4 5 6 7 8 9 10 11 12 13 14 15 16 17 18 19 20 21 22 23 24 25 26 27 28 29 30 31 32 33 34 35 36 37 38 39 40 41 42 43 44 45 46 47 48 49 50
000
AXUS43 KLBF 281310
MISLBF


WESTERN AND NORTH CENTRAL NEBRASKA HOURLY WEATHER ROUNDUP
NATIONAL WEATHER SERVICE NORTH PLATTE NE
800 AM CDT SAT MAR 28 2015

***STATIONS NOT REPORTING VARIABLES SUCH AS SKY/WEATHER OR
PRESSURE ARE PROVIDED BY THE NEBRASKA DEPARTMENT OF
ROADS...RAWS...AND APRS NETWORKS...AND ARE NOT UNDER
NATIONAL WEATHER SERVICE QUALITY CONTROL***

...OBSERVATIONS IN AND NEAR THE EASTERN PANHANDLE OF NEBRASKA...

CITY           SKY/WX    TMP DP  RH WIND       PRES   REMARKS
PINE RIDGE     CLEAR     27  23  85 NW3       29.95S
CHADRON        CLEAR     31  27  85 S5        29.96R WCI  26
ALLIANCE       CLEAR     26  24  92 S5        29.98R WCI  20
SIDNEY         CLEAR     39  27  62 NW14      30.01R WCI  31
WHITECLAY        N/A     30  28  93 E7          N/A  WCI  23
CRESCENT LAKE    N/A     37  31  79 CALM        N/A
BIG SPRINGS      N/A     33  29  86 W3          N/A
$$

...OBSERVATIONS IN NORTH CENTRAL NEBRASKA...

CITY           SKY/WX    TMP DP  RH WIND       PRES   REMARKS
VALENTINE      CLEAR     27  25  92 W3        30.00R
THEDFORD       CLEAR     30  29  96 CALM      30.01R
AINSWORTH      CLEAR     32  30  94 S5        29.99S WCI  27
O`NEILL        CLEAR     31  28  88 SE6       30.03R WCI  25
ORD            CLEAR     25  21  85 CALM      30.03R
BROKEN BOW     CLEAR     25  22  88 CALM      30.00R
BROWNLEE         N/A     35  31  85 CALM        N/A
SPRINGVIEW       N/A     26  24  91 CALM        N/A
BREWSTER         N/A     28  28 100 CALM        N/A
ROSE             N/A     33  30  92 CALM        N/A
NEWPORT          N/A     30  30 100 CALM        N/A
SARGENT          N/A     27  24  88 CALM        N/A
COMSTOCK         N/A     30  27  90 CALM        N/A
EWING            N/A     30  28  92 CALM        N/A
$$

...OBSERVATIONS IN SOUTHWEST NEBRASKA AND FAR NORTHEAST COLORADO...

CITY           SKY/WX    TMP DP  RH WIND       PRES   REMARKS
WRAY           FAIR      38  32  80 W6        30.02R WCI  33
HOLYOKE        FAIR      37  32  81 W7        30.00S WCI  32
IMPERIAL         N/A     34  27  75 W6        30.01R WCI  29
OGALLALA       CLEAR     30  28  92 W7        30.00S WCI  23
NORTH PLATTE   CLEAR     28  26  92 CALM      30.00S
MCCOOK         CLEAR     34  29  82 NE3       30.01R
LEXINGTON      CLEAR     29  26  91 W5        30.01R WCI  23
PAXTON           N/A     36  31  82 CALM        N/A
SUTHERLAND       N/A     30  28  93 CALM        N/A
BRADY            N/A     29  26  87 CALM        N/A
GOTHENBURG       N/A     34  29  82 CALM        N/A
CALLAWAY         N/A     35  31  85 CALM        N/A
$$

...NORTH PLATTE AREA...

CITY           SKY/WX    TMP DP  RH WIND       PRES   REMARKS
AIRPORT        CLEAR     28  26  92 CALM      30.00S
DOWNTOWN         N/A     34  30  86 CALM        N/A
$$

...SOME WEATHER OBSERVATIONS FROM AROUND THE REGION...

CITY           SKY/WX    TMP DP  RH WIND       PRES   REMARKS
DENVER         CLEAR     49  28  44 SW10      30.09R
LARAMIE        CLEAR     36  23  59 W7        30.15R WCI  30
CHEYENNE       CLEAR     39  23  52 W9        30.09S WCI  33
SCOTTSBLUFF    CLEAR     32  25  75 CALM      30.00R
RAPID CITY     CLEAR     37  31  78 SE3       29.92S
PIERRE         CLEAR     22  21  96 E7        29.99R FOG     WCI  13
WINNER         FAIR      34  28  79 S5        29.99S WCI  30
SIOUX FALLS    PTCLDY    29  26  89 SE8       30.12R WCI  21
OMAHA          PTCLDY    33  26  75 SE9       30.14R WCI  25
GRAND ISLAND   CLEAR     30  25  81 SE8       30.05R WCI  22
KANSAS CITY    CLOUDY    36  29  75 E13       30.16R WCI  27
WICHITA        PTCLDY    39  32  76 S7        30.00S WCI  34
HAYS           CLEAR     37  27  65 NW5       30.00R WCI  34
LIBERAL        CLEAR     43  28  56 NW7       30.03R
GOODLAND       CLEAR     41  33  73 W8        30.02R
$$



USA.gov is the U.S. government's official web portal to all federal, state and local government web resources and services.